Flag for Switzerland Weather past 2 weeks in Arth, Schwyz, Switzerland

Now
65 °F

Mild.


Feels Like: 65 °F
Forecast: 43 / 51 °F
Wind: 2 mph from Southwest

Location: Altdorf

Current Time: Sep 2, 2015 at 7:47:28 PM

Latest Report: Sep 2, 2015 at 7:00 PM


Visibility: N/A

Pressure: 29.96 "Hg

Humidity: 74%

Dew point: 56 °F

Location of ArthLocation

Historic Weather in Arth — Graph

°F

Arth temperature yesterday

Maximum temperature yesterday: 78 °F (at 11:00 AM)
Minimum temperature yesterday: 61 °F (at 10:00 PM)
Average temperature yesterday: 68 °F

Past Weeks' High & Low Weather Summary

 TemperatureHumidityPressure
High86 °F (Aug 30, 5:00 PM)99% (Aug 19, 2:00 AM)30.28 "Hg (Aug 19, 2:00 AM)
Low50 °F (Aug 26, 7:00 AM)22% (Aug 31, 4:00 AM)29.67 "Hg (Aug 24, 8:00 AM)
Average66 °F71%30.02 "Hg
* Reported Aug 18 6:00 PM — Sep 2 6:00 PM, Arth, Weather by CustomWeather, © 2015

Note: Actual official high and low records may vary slightly from our data, if they occured in-between our weather recording intervals... More about our weather records

Advertising

Arth weather history for previous 24 hours

 ConditionsComfort  
Time TempWeatherWind HumidityBarometerVisibility
6:00 PM
Wed, Sep 2
65 °FMild.2 mph72%29.96 "HgN/A
5:00 PM66 °FOvercast.10 mph68%29.95 "Hg9 mi
4:00 PM66 °FMild.12 mph68%29.95 "HgN/A
3:00 PM67 °FMild.12 mph68%29.95 "HgN/A
2:00 PM67 °FOvercast.8 mph67%29.94 "Hg11 mi
1:00 PM66 °FMild.7 mph67%29.96 "HgN/A
12:00 PM67 °FMild.5 mph72%29.97 "HgN/A
11:00 AM63 °FOvercast.3 mph78%29.99 "HgN/A
10:00 AM62 °FCool.1 mph79%30.00 "HgN/A
9:00 AM59 °FCool.No wind89%30.03 "HgN/A
8:00 AM58 °FOvercast.No wind95%30.03 "Hg12 mi
7:00 AM58 °FCool.No wind95%30.03 "HgN/A
4:00 AM58 °FCool.3 mph89%30.07 "HgN/A
3:00 AM59 °FCool.2 mph86%30.07 "HgN/A
2:00 AM58 °FLight rain. Low clouds.10 mph90%30.07 "Hg3 mi
1:00 AM60 °FCool.3 mph96%30.06 "HgN/A
12:00 AM60 °FCool.No wind97%30.07 "HgN/A
10:00 PM
Tue, Sep 1
61 °FCool.2 mph97%30.07 "HgN/A
9:00 PM61 °FCool.5 mph95%30.05 "HgN/A
8:00 PM62 °FHeavy rain. Low clouds.12 mph84%30.03 "Hg2 mi
7:00 PM64 °FMild.14 mph82%30.00 "HgN/A
Weather by CustomWeather, © 2015

See weather overviewHow to use our weather pages